Weather History for Talkeetna, AK

Change the Weather History Date:

Saturday, November 26, 2011

  Actual Average Record
Temperature  
Mean Temperature -10 °F -  
Max Temperature -2 °F 24 °F 48 °F (2002)
Min Temperature -17 °F 8 °F -21 °F (1962)
Degree Days  
Heating Degree Days 74    
Moisture  
Dew Point -15 °F    
Average Humidity 78    
Maximum Humidity 79    
Minimum Humidity 74    
Precipitation  
Precipitation 0.00 in - - ()
Sea Level Pressure  
Sea Level Pressure 29.57 in    
Wind  
Wind Speed 1 mph (NE)    
Max Wind Speed 4 mph    
Max Gust Speed -    
Visibility 10 miles    
Events      
Averages and records for this station are not official NWS values.
T = Trace of Precipitation, MM = Missing Value Source: NWS Daily Summary

Daily Weather History Graph

Daily Weather History Graph

Search for Another Location

Airport:

Trip Planner

Search our weather history database for the weather conditions in past years. The results will help you decide how hot, cold, wet, or windy it might be!

Date:

Astronomy

Nov. 26, 2011 Rise Set
Actual Time 9:44 AM AKST 3:50 PM AKST
Civil Twilight 8:44 AM AKST 4:49 PM AKST
Nautical Twilight 7:45 AM AKST 5:48 PM AKST
Astronomical Twilight 6:51 AM AKST 6:43 PM AKST
Moon 11:50 AM AKST (11/26) 5:09 PM AKST (11/26)
Length of Visible Light 8h 05m
Length of Day
6h 05m
Waxing Crescent, 4% of the Moon is Illuminated
Nov 26
Waxing Crescent
Dec 2
First Quarter
Dec 10
Full
Dec 17
Last Quarter
Dec 24
New

Hourly Weather History & Observations

Time (AKST) Temp. Windchill Dew Point Humidity Pressure Visibility Wind Dir Wind Speed Gust Speed Precip Events Conditions
12:53 AM -7.1 °F - -11.9 °F 79% 29.58 in 10.0 mi Calm Calm - N/A   Partly Cloudy
1:53 AM -7.1 °F - -11.9 °F 79% 29.57 in 10.0 mi Calm Calm - N/A   Overcast
3:53 AM -6.0 °F - -11.0 °F 79% 29.55 in 10.0 mi Calm Calm - N/A   Clear
4:53 AM -7.1 °F -15.9 °F -11.9 °F 79% 29.55 in 9.0 mi NE 3.5 mph - N/A   Clear
5:53 AM -9.0 °F -18.2 °F -14.1 °F 79% 29.54 in 10.0 mi NE 3.5 mph - N/A   Clear
6:53 AM -9.0 °F - -14.1 °F 79% 29.55 in 10.0 mi Calm Calm - N/A   Mostly Cloudy
7:53 AM -11.0 °F - -16.1 °F 78% 29.55 in 10.0 mi Calm Calm - N/A   Clear
8:53 AM -11.9 °F - -17.0 °F 78% 29.57 in 10.0 mi Calm Calm - N/A   Clear
9:53 AM -13.0 °F - -18.0 °F 78% 29.57 in 10.0 mi Calm Calm - N/A   Clear
10:53 AM -13.0 °F - -18.0 °F 78% 29.58 in 10.0 mi Calm Calm - N/A   Clear
11:53 AM -9.0 °F - -14.1 °F 79% 29.58 in 10.0 mi Calm Calm - N/A   Clear
12:53 PM -6.0 °F - -11.0 °F 79% 29.58 in 10.0 mi Calm Calm - N/A   Clear
1:53 PM -2.9 °F - -8.0 °F 79% 29.57 in 10.0 mi Calm Calm - N/A   Clear
2:53 PM -2.9 °F - -8.0 °F 79% 29.57 in 10.0 mi Calm Calm - N/A   Clear
3:53 PM -6.0 °F - -11.0 °F 79% 29.57 in 9.0 mi Calm Calm - N/A   Clear
4:53 PM -9.9 °F - -15.0 °F 78% 29.58 in 9.0 mi Calm Calm - N/A   Clear
5:53 PM -11.0 °F - -16.1 °F 78% 29.58 in 9.0 mi Calm Calm - N/A   Clear
6:53 PM -13.0 °F -22.7 °F -18.0 °F 78% 29.58 in 10.0 mi NE 3.5 mph - N/A   Clear
7:53 PM -15.0 °F - -20.0 °F 78% 29.58 in 10.0 mi Calm Calm - N/A   Clear
8:53 PM -16.1 °F -26.2 °F -20.9 °F 79% 29.59 in 10.0 mi NE 3.5 mph - N/A   Clear
9:53 PM -16.1 °F - -22.0 °F 74% 29.59 in 10.0 mi Calm Calm - N/A   Clear
10:53 PM -17.0 °F - -23.1 °F 74% 29.59 in 10.0 mi Calm Calm - N/A   Clear
11:53 PM -17.0 °F - -22.0 °F 78% 29.59 in 9.0 mi Calm Calm - N/A   Clear